Morrisville, VT

2:52 AM EST on February 23, 2017 (GMT -0500)
Morrisville Stowe State

Weather History for KMVL - February, 2012

Change the Weather History Date:

Sunday, February 19, 2012

  Actual Average Record
Temperature  
Mean Temperature 24 °F 20 °F  
Max Temperature 32 °F 32 °F 49 °F (2017)
Min Temperature 16 °F 8 °F -6 °F (2007)
Degree Days  
Heating Degree Days 41 45  
Month to date heating degree days 771 904  
Since 1 July heating degree days 4776 5566  
Cooling Degree Days 0 0  
Month to date cooling degree days 0 0  
Year to date cooling degree days 0 0  
Moisture  
Dew Point 15 °F    
Average Humidity 64    
Maximum Humidity 80    
Minimum Humidity 47    
Precipitation  
Precipitation 0.00 in 0.06 in 0.18 in (1998)
Month to date precipitation 0.02 1.17  
Year to date precipitation 0.91 3.71  
Sea Level Pressure  
Sea Level Pressure 30.08 in    
Wind  
Wind Speed 5 mph (NNW)    
Max Wind Speed 16 mph    
Max Gust Speed 25 mph    
Visibility 10 miles    
Events      
T = Trace of Precipitation, MM = Missing Value Source: NWS Daily Summary

Daily Weather History Graph

Daily Weather History Graph

Search for Another Location

Airport or City:

Trip Planner

Search our weather history database for the weather conditions in past years. The results will help you decide how hot, cold, wet, or windy it might be!

Date:

Astronomy

Feb. 19, 2012 Rise Set
Actual Time 6:45 AM EST 5:24 PM EST
Civil Twilight 6:15 AM EST 5:53 PM EST
Nautical Twilight 5:41 AM EST 6:27 PM EST
Astronomical Twilight 5:07 AM EST 7:01 PM EST
Moon 5:08 AM EST (2/19) 3:19 PM EST (2/19)
Length of Visible Light 11h 38m
Length of Day
10h 38m
Waning Crescent, 5% of the Moon is Illuminated
Feb 19
Waning Crescent
Feb 21
New
Feb 29
First Quarter
Mar 8
Full
Mar 14
Last Quarter

Hourly Weather History & Observations

Time (EST) Temp. Windchill Dew Point Humidity Pressure Visibility Wind Dir Wind Speed Gust Speed Precip Events Conditions
12:54 AM 28.0 °F 19.3 °F 17.1 °F 63% 30.05 in 10.0 mi NNW 9.2 mph - N/A   Overcast
1:54 AM 27.0 °F 18.0 °F 16.0 °F 63% 30.07 in 10.0 mi NW 9.2 mph - N/A   Mostly Cloudy
2:29 AM 26.6 °F 18.2 °F 15.8 °F 64% 30.04 in 10.0 mi NNW 8.1 mph 18.4 mph N/A   Mostly Cloudy
2:54 AM 26.1 °F 16.8 °F 16.0 °F 66% 30.06 in 10.0 mi NNW 9.2 mph 18.4 mph N/A   Overcast
3:54 AM 26.1 °F 16.8 °F 16.0 °F 66% 30.06 in 10.0 mi North 9.2 mph - N/A   Overcast
4:54 AM 25.0 °F 14.2 °F 15.1 °F 66% 30.08 in 10.0 mi NW 11.5 mph 19.6 mph N/A   Overcast
5:54 AM 25.0 °F 17.1 °F 16.0 °F 69% 30.09 in 10.0 mi North 6.9 mph - N/A   Overcast
8:54 AM 25.0 °F 19.3 °F 15.1 °F 66% 30.12 in 10.0 mi NW 4.6 mph - N/A   Overcast
9:54 AM 26.1 °F 16.8 °F 15.1 °F 63% 30.13 in 10.0 mi North 9.2 mph - N/A   Overcast
10:07 AM 26.6 °F 19.1 °F 14.0 °F 59% 30.09 in 10.0 mi NNW 6.9 mph - N/A   Overcast
10:54 AM 28.0 °F 20.8 °F 15.1 °F 58% 30.12 in 10.0 mi North 6.9 mph - N/A   Overcast
12:54 PM 30.9 °F 22.2 °F 15.1 °F 52% 30.09 in 10.0 mi NW 10.4 mph 16.1 mph N/A   Clear
1:54 PM 28.9 °F 23.9 °F 16.0 °F 58% 30.08 in 10.0 mi North 4.6 mph - N/A   Overcast
2:54 PM 28.9 °F 22.8 °F 14.0 °F 54% 30.07 in 10.0 mi Variable 5.8 mph - N/A   Mostly Cloudy
3:54 PM 30.0 °F 21.7 °F 12.9 °F 49% 30.06 in 10.0 mi NW 9.2 mph 17.3 mph N/A   Overcast
4:54 PM 28.9 °F 23.9 °F 12.9 °F 51% 30.06 in 10.0 mi North 4.6 mph - N/A   Overcast
5:54 PM 27.0 °F - 12.9 °F 56% 30.06 in 10.0 mi Calm Calm - N/A   Partly Cloudy
6:54 PM 23.0 °F - 14.0 °F 68% 30.09 in 10.0 mi Calm Calm - N/A   Clear
7:54 PM 23.0 °F - 14.0 °F 68% 30.09 in 10.0 mi Calm Calm - N/A   Clear
8:54 PM 19.9 °F - 12.9 °F 74% 30.09 in 10.0 mi Calm Calm - N/A   Clear
10:54 PM 17.1 °F - 12.0 °F 81% 30.10 in 10.0 mi Calm Calm - N/A   Clear
11:54 PM 17.1 °F - 12.0 °F 81% 30.11 in 10.0 mi Calm Calm - N/A   Clear